[[{"header":{"parameterUnit":"m.s-1","parameterCategory":1,"la1":30.2991,"la2":30.254,"lo1":-89.0895,"lo2":-89.0444,"dy":0.0017,"dx":0.0017,"nx":28,"ny":28,"refTime":"2025-07-14T09:00:00:Z","depth":0,"parameterNumber":2,"parameterNumberName":"U-component_of_WINDS"},"data":[0,0,0,0,0,0,0,0,0,0,0,0,0,0,0,0,0,0,0,0,0,0,0,0,0,0,0,0,0,0,0,0,0,0,0,0,0,0,0,0,0,0,0,0,0,0,0,0,0,0,0,0,0,0,0,0,0,0,3.3993,3.3994,0,3.4133,3.4134,3.4136,3.4106,3.4103,3.4101,3.4098,3.4244,3.425,3.4256,0,0,0,0,0,0,0,0,0,0,0,0,0,3.3701,3.3707,3.3993,3.3994,3.3996,3.4132,3.4134,3.4136,3.4106,3.4103,3.41,3.4097,3.4242,3.4249,3.4257,0,0,0,0,0,0,0,0,0,0,0,0,0,3.3833,3.3709,3.3992,3.3998,3.3999,3.4132,3.4134,3.4137,3.4107,3.4103,3.4099,3.4096,3.4239,3.4249,3.4258,3.4394,0,0,3.4287,3.4291,0,0,0,0,0,0,0,0,3.3826,3.3844,3.3995,3.3998,3.4,3.4098,3.4085,3.4223,3.4108,3.4066,3.4098,3.4094,3.4199,3.4211,3.4246,3.4401,3.4407,3.4288,3.4293,3.4297,3.43,0,0,0,0,0,0,0,3.3817,3.3838,3.4048,3.3997,3.4,3.3993,3.4008,3.4111,3.4153,3.407,3.4068,3.4085,3.4199,3.4237,3.4249,3.441,3.4287,3.4296,3.4302,3.4305,3.4683,3.4687,0,0,0,0,0,0,3.3805,3.383,3.4044,3.4052,3.3901,3.4002,3.4018,3.407,3.4151,3.416,3.4088,3.4083,3.4223,3.4238,3.4254,3.4419,3.4297,3.4306,3.4312,3.4679,3.4684,3.4689,0,0,0,0,0,0,3.3799,3.3824,3.4038,3.3941,3.3967,3.4011,3.407,3.4075,3.4113,3.4165,3.4173,3.4119,3.422,3.4241,3.4359,3.4424,3.431,3.4319,3.4673,3.468,3.4686,3.475,0,0,0,0,0,0,3.3791,3.3822,3.3875,3.3942,3.3973,3.4141,3.4074,3.4081,3.4129,3.4124,3.4196,3.4204,3.4219,3.4345,3.4369,3.4435,3.4326,3.4668,3.4676,3.4684,3.4742,3.4758,3.4771,0,0,0,0,0,3.378,3.3888,3.3877,3.3903,3.4039,3.4144,3.4162,3.4176,3.4134,3.4187,3.422,3.4202,3.4413,3.4358,3.4384,3.4453,3.4664,3.4674,3.4683,3.4736,3.4754,3.477,0,0,0,0,0,0,3.3828,3.3897,3.3886,3.4018,3.4076,3.4139,3.4206,3.4195,3.4266,3.4258,3.4273,3.4289,3.441,3.4443,3.4381,3.4589,3.4532,3.4548,3.4563,3.4582,3.4596,3.4585,3.4334,0,0,0,0,0,3.3853,3.3933,3.3989,3.41,3.4129,3.4163,3.421,3.4215,3.4275,3.4299,3.4341,3.4401,3.4481,3.4533,3.4609,3.4746,3.4762,3.4807,3.4821,3.4833,3.4846,3.4921,3.4941,3.4721,3.4721,3.472,0,0,3.3908,3.3955,3.4005,3.4111,3.4156,3.4238,3.4184,3.4273,3.4334,3.4313,3.4427,3.446,3.4528,3.4656,3.4715,3.4688,3.491,3.4845,3.4854,3.4862,3.4933,3.4954,3.4972,3.4727,3.4726,3.4725,0,0,3.4049,3.4092,3.4189,3.4235,3.4303,3.4325,3.4348,3.4413,3.4434,3.4548,3.4534,3.4607,3.4744,3.4792,3.4835,3.4992,3.4977,3.5016,3.5092,3.5164,3.5181,3.5197,3.5253,3.5273,3.5029,3.5029,3.503,0,3.4108,3.423,3.4241,3.4332,3.4379,3.4362,3.446,3.4504,3.4594,3.4627,3.4595,3.4766,3.481,3.4949,3.4987,3.5022,3.5049,3.5008,3.5178,3.5194,3.5208,3.5262,3.5283,3.5034,3.5033,3.5033,3.5032,0,3.4299,3.4385,3.4455,3.4541,3.4596,3.469,3.4715,3.4769,3.4769,3.4794,3.491,3.4963,3.5048,3.5082,3.5083,3.5221,3.5202,3.5174,3.5117,3.5233,3.5284,3.5304,3.504,3.5038,3.5037,3.5036,0,0,3.4476,3.4565,3.459,3.4629,3.4702,3.4768,3.4861,3.4944,3.499,3.5052,3.5131,3.5246,3.522,3.5268,3.5275,3.5339,3.5459,3.5303,3.5304,3.533,3.5613,3.5634,3.5658,3.545,3.5454,3.5457,3.5608,0,3.4623,3.4786,3.4798,3.4945,3.5024,3.5008,3.5089,3.5143,3.5168,3.5239,3.5267,3.5348,3.5308,3.5337,3.5399,3.5431,3.5516,3.5421,3.5523,3.5527,3.5507,3.5684,3.5707,3.5847,3.5627,3.5631,3.5633,0,3.4817,3.4884,3.5039,3.51,3.5133,3.5206,3.5282,3.5349,3.541,3.5423,3.5476,3.5474,3.557,3.5509,3.564,3.5575,3.5617,3.564,3.5645,3.5656,3.5587,3.5699,3.5892,3.5913,3.5664,3.5662,3.566,0,3.493,3.5059,3.5167,3.5201,3.5274,3.5326,3.5359,3.5415,3.5464,3.553,3.5562,3.5639,3.5682,3.5742,3.576,3.5714,3.5892,3.5832,3.5906,3.5906,3.5945,3.5942,3.6147,3.5972,3.5972,3.5971,3.5971,0,3.5094,3.5189,3.5219,3.5286,3.5392,3.5404,3.5509,3.554,3.559,3.5662,3.5654,3.5722,3.5742,3.5815,3.583,3.5936,3.5956,3.597,3.5973,3.5971,3.5969,3.5999,3.599,3.5977,3.5976,3.5974,3.5973,0,3.5238,3.5262,3.538,3.5439,3.5456,3.5532,3.5583,3.5647,3.567,3.5762,3.5785,3.5821,3.5906,3.593,3.6032,3.6042,3.6167,3.6161,3.6146,3.6146,3.6219,3.6211,3.645,3.6482,3.6286,3.6288,3.6289,0,3.5342,3.5414,3.5481,3.5528,3.5563,3.564,3.5689,3.5703,3.5755,3.5828,3.5884,3.5967,3.6034,3.617,3.6206,3.6283,3.6279,3.6357,3.6291,3.6286,3.628,3.6276,3.6283,3.637,3.6372,3.6374,3.6375,0,3.5522,3.553,3.56,3.5674,3.5733,3.5792,3.5849,3.5889,3.5911,3.597,3.6055,3.6107,3.621,3.6292,3.637,3.6405,3.6395,3.6395,3.6417,3.6416,3.6404,3.6411,3.6181,3.639,3.6389,3.6388,3.6387,3.6386,3.5649,3.5713,3.5769,3.5847,3.5891,3.5944,3.6007,3.6037,3.6109,3.6193,3.6197,3.629,3.6347,3.645,3.6489,3.6562,3.6539,3.657,3.6578,3.6585,3.6591,3.6392,3.6576,3.6576,3.6576,3.6575,3.6575,0,3.5829,3.5864,3.5936,3.6015,3.6077,3.6059,3.6121,3.6174,3.6255,3.6309,3.6375,3.6472,3.6552,3.6593,3.6672,3.6723,3.672,3.6743,3.674,3.6748,3.6607,3.6581,3.6744,3.6744,3.6744,3.6744,3.6744,3.6744,3.593,3.6036,3.605,3.6177,3.6212,3.6301,3.6338,3.6387,3.643,3.6539,3.6604,3.663,3.6679,3.6761,3.6834,3.6844,3.6873,3.6899,3.6907,3.6775,3.6758,3.6741,3.6717,3.6906,3.6906,3.7041,3.7043,3.7044]},{"header":{"parameterUnit":"m.s-1","parameterCategory":1,"la1":30.2991,"la2":30.254,"lo1":-89.0895,"lo2":-89.0444,"dy":0.0017,"dx":0.0017,"nx":28,"ny":28,"refTime":"2025-07-14T09:00:00:Z","depth":0,"parameterNumber":3,"parameterNumberName":"V-component_of_WINDS"},"data":[0,0,0,0,0,0,0,0,0,0,0,0,0,0,0,0,0,0,0,0,0,0,0,0,0,0,0,0,0,0,0,0,0,0,0,0,0,0,0,0,0,0,0,0,0,0,0,0,0,0,0,0,0,0,0,0,0,0,-0.8431,-0.8432,0,-0.8501,-0.8502,-0.8503,-0.8528,-0.8528,-0.8527,-0.8527,-0.86,-0.8602,-0.8604,0,0,0,0,0,0,0,0,0,0,0,0,0,-0.8321,-0.8323,-0.8431,-0.8432,-0.8433,-0.8501,-0.8502,-0.8503,-0.8528,-0.8528,-0.8527,-0.8527,-0.8599,-0.8602,-0.8605,0,0,0,0,0,0,0,0,0,0,0,0,0,-0.8378,-0.8324,-0.8431,-0.8454,-0.8456,-0.8501,-0.8502,-0.8503,-0.8528,-0.8528,-0.8527,-0.8527,-0.8599,-0.8602,-0.8605,-0.8633,0,0,-0.8615,-0.8616,0,0,0,0,0,0,0,0,-0.8375,-0.8382,-0.8449,-0.8452,-0.8455,-0.8505,-0.849,-0.8547,-0.8528,-0.8501,-0.8527,-0.8527,-0.8569,-0.8575,-0.8589,-0.8636,-0.8639,-0.8615,-0.8617,-0.8619,-0.862,0,0,0,0,0,0,0,-0.8371,-0.8379,-0.8459,-0.845,-0.8454,-0.8461,-0.8468,-0.8501,-0.8536,-0.8503,-0.8505,-0.8513,-0.8571,-0.8586,-0.8591,-0.8641,-0.8615,-0.8618,-0.862,-0.8621,-0.8716,-0.8716,0,0,0,0,0,0,-0.8363,-0.8376,-0.8457,-0.8461,-0.8413,-0.8463,-0.8472,-0.849,-0.8536,-0.8543,-0.8513,-0.8514,-0.858,-0.8587,-0.8593,-0.863,-0.8619,-0.8622,-0.8624,-0.8715,-0.8716,-0.8717,0,0,0,0,0,0,-0.836,-0.837,-0.8454,-0.8419,-0.843,-0.8465,-0.8486,-0.8491,-0.8506,-0.8544,-0.855,-0.8522,-0.858,-0.8589,-0.8623,-0.8632,-0.8623,-0.8626,-0.8715,-0.8715,-0.8716,-0.8702,0,0,0,0,0,0,-0.8357,-0.8369,-0.8379,-0.8419,-0.8432,-0.8482,-0.8486,-0.8493,-0.8512,-0.8513,-0.8553,-0.856,-0.858,-0.8618,-0.8626,-0.8637,-0.8629,-0.8714,-0.8715,-0.8716,-0.8702,-0.8702,-0.8702,0,0,0,0,0,-0.8353,-0.8372,-0.8379,-0.8389,-0.8446,-0.8482,-0.849,-0.8513,-0.8512,-0.8523,-0.8548,-0.8558,-0.863,-0.8621,-0.8631,-0.8642,-0.8713,-0.8715,-0.8716,-0.8701,-0.8702,-0.8702,0,0,0,0,0,0,-0.8333,-0.8378,-0.8386,-0.8419,-0.8447,-0.8486,-0.8501,-0.8512,-0.8541,-0.8541,-0.8569,-0.8578,-0.861,-0.863,-0.8619,-0.8673,-0.8673,-0.8676,-0.8658,-0.8659,-0.8659,-0.8654,-0.8631,0,0,0,0,0,-0.8332,-0.8357,-0.8396,-0.8421,-0.8434,-0.8465,-0.8482,-0.8498,-0.8527,-0.8539,-0.8566,-0.8595,-0.8624,-0.8643,-0.8672,-0.8705,-0.8714,-0.8718,-0.8718,-0.8718,-0.872,-0.874,-0.8742,-0.8721,-0.8721,-0.872,0,0,-0.8331,-0.8359,-0.8373,-0.8418,-0.8441,-0.8467,-0.8475,-0.8502,-0.8522,-0.8544,-0.8578,-0.8598,-0.8633,-0.8667,-0.8683,-0.8684,-0.8729,-0.872,-0.872,-0.8722,-0.8742,-0.8744,-0.8746,-0.8721,-0.8721,-0.8721,0,0,-0.8342,-0.8366,-0.8389,-0.8413,-0.8448,-0.8468,-0.8474,-0.8512,-0.8527,-0.8561,-0.8578,-0.8603,-0.8652,-0.8676,-0.8695,-0.8717,-0.8728,-0.8726,-0.8728,-0.8747,-0.8748,-0.875,-0.8758,-0.8761,-0.8728,-0.8728,-0.8728,0,-0.8336,-0.8376,-0.84,-0.8427,-0.8447,-0.8467,-0.8492,-0.8513,-0.8556,-0.857,-0.857,-0.8633,-0.8658,-0.8698,-0.8703,-0.8718,-0.8726,-0.8721,-0.8746,-0.8748,-0.875,-0.8758,-0.8761,-0.8727,-0.8727,-0.8728,-0.8728,0,-0.8368,-0.8395,-0.841,-0.8451,-0.8472,-0.8498,-0.8527,-0.8545,-0.8559,-0.858,-0.8616,-0.8646,-0.8682,-0.8693,-0.8707,-0.8735,-0.8735,-0.874,-0.8741,-0.8751,-0.8759,-0.8762,-0.8727,-0.8727,-0.8727,-0.8727,0,0,-0.8367,-0.8422,-0.8427,-0.8446,-0.8486,-0.8508,-0.8536,-0.857,-0.8586,-0.8615,-0.8639,-0.8681,-0.8687,-0.8708,-0.8725,-0.8742,-0.8758,-0.8745,-0.8747,-0.8747,-0.8792,-0.8788,-0.8791,-0.8766,-0.8766,-0.8767,-0.8789,0,-0.8384,-0.8433,-0.8456,-0.8494,-0.8521,-0.8541,-0.8565,-0.8593,-0.8613,-0.8639,-0.8662,-0.8691,-0.8696,-0.871,-0.8727,-0.8752,-0.8767,-0.8751,-0.8789,-0.879,-0.8779,-0.8795,-0.879,-0.881,-0.8793,-0.8793,-0.8794,0,-0.841,-0.8439,-0.848,-0.8518,-0.853,-0.8551,-0.8585,-0.8609,-0.8642,-0.8656,-0.868,-0.8697,-0.8727,-0.8726,-0.8768,-0.8757,-0.8774,-0.8789,-0.879,-0.8794,-0.8792,-0.88,-0.8816,-0.8819,-0.8799,-0.8798,-0.8798,0,-0.8406,-0.8455,-0.8486,-0.8502,-0.8547,-0.8562,-0.8581,-0.8614,-0.8633,-0.8664,-0.8677,-0.871,-0.8729,-0.8755,-0.878,-0.8777,-0.8821,-0.8821,-0.8834,-0.8833,-0.8841,-0.884,-0.8861,-0.8853,-0.8852,-0.8852,-0.8852,0,-0.8422,-0.8447,-0.8485,-0.8504,-0.8533,-0.856,-0.8587,-0.8609,-0.8637,-0.8662,-0.8682,-0.8704,-0.8737,-0.8764,-0.8784,-0.8817,-0.8825,-0.8838,-0.8843,-0.8836,-0.8834,-0.8847,-0.8846,-0.8853,-0.8853,-0.8853,-0.8853,0,-0.8422,-0.8449,-0.8484,-0.8524,-0.8535,-0.8554,-0.8589,-0.8609,-0.8631,-0.8662,-0.867,-0.8705,-0.8738,-0.8766,-0.881,-0.8824,-0.8857,-0.8863,-0.8846,-0.8849,-0.8859,-0.8858,-0.8889,-0.8894,-0.8882,-0.8882,-0.8882,0,-0.8431,-0.845,-0.8492,-0.851,-0.8529,-0.8557,-0.8577,-0.8605,-0.8625,-0.8664,-0.868,-0.8714,-0.8743,-0.8795,-0.8824,-0.8858,-0.8865,-0.8874,-0.887,-0.8863,-0.8866,-0.8864,-0.8867,-0.8874,-0.8874,-0.8874,-0.8874,0,-0.8443,-0.8455,-0.8483,-0.8516,-0.854,-0.8567,-0.8595,-0.8609,-0.8642,-0.8664,-0.8697,-0.872,-0.8764,-0.8799,-0.8836,-0.8857,-0.8871,-0.8875,-0.8879,-0.8872,-0.8861,-0.8868,-0.8846,-0.8874,-0.8874,-0.8874,-0.8874,-0.8874,-0.8448,-0.8466,-0.8499,-0.853,-0.8554,-0.8579,-0.86,-0.8625,-0.8653,-0.8691,-0.8706,-0.8741,-0.8774,-0.8825,-0.8847,-0.8875,-0.8877,-0.8884,-0.8885,-0.8887,-0.8886,-0.8857,-0.8882,-0.8882,-0.8882,-0.8882,-0.8882,0,-0.8461,-0.8483,-0.8511,-0.855,-0.8575,-0.8585,-0.8617,-0.8637,-0.8667,-0.8697,-0.8725,-0.8764,-0.8798,-0.883,-0.8866,-0.8882,-0.8889,-0.889,-0.8889,-0.8894,-0.8882,-0.8874,-0.8884,-0.8884,-0.8884,-0.8884,-0.8884,-0.8884,-0.8471,-0.8503,-0.8519,-0.8564,-0.8586,-0.862,-0.8637,-0.8661,-0.8685,-0.8728,-0.8756,-0.8776,-0.8808,-0.8846,-0.8877,-0.8886,-0.8898,-0.8898,-0.8908,-0.8896,-0.8895,-0.8895,-0.8888,-0.89,-0.89,-0.8919,-0.8919,-0.8919]}]]